Date String (YYYY-MM-DD hh:mm:ss) UTC,Instrument flags,Ambient pressure (hPa),Sample flow (lpm),Bypass flow (lpm),Sample temperature (°C),Ambient temperature (°C),ASC tube jacket temperature (°C),LED temperature (°C),Box temperature (°C),Sample RH (%),Span deviation,Mass concentration (μg/m³),Mass concentration (μg/m³),Mass concentration (μg/m³)
DateTimeUTC,F1_M11,P_M11,Q1_M11,Q2_M11,T1_M11,T2_M11,T3_M11,T4_M11,T5_M11,U1_M11,ZSPAN_M11,X0_M11,X2_M11,X1_M11
2021-08-28 12:00:00,,0825.6,4.99,0.00,29.8,26.3,00.0,39.0,31.1,15.6,0001.4,0009.81,0004.66,0004.21
2021-08-28 12:01:00,,0825.6,5.02,0.00,29.7,26.5,00.0,39.0,31.1,15.9,0001.1,0009.29,0004.66,0004.19
2021-08-28 12:02:00,,0825.6,4.98,0.00,29.7,26.9,00.0,38.9,31.2,16.3,0001.0,0009.10,0004.63,0004.17
2021-08-28 12:03:00,,0825.6,5.01,0.00,29.6,27.3,00.0,38.9,31.2,16.5,0001.1,0008.94,0004.65,0004.19
2021-08-28 12:04:00,,0825.7,5.00,0.00,29.6,27.6,00.0,38.9,31.3,16.7,0001.0,0008.76,0004.69,0004.20
2021-08-28 12:05:00,,0825.7,4.98,0.00,29.6,27.8,00.0,38.9,31.3,16.6,0001.1,0008.15,0004.68,0004.22
2021-08-28 12:06:00,,0826.0,5.02,0.00,29.7,28.0,00.0,38.9,31.3,16.0,0001.0,0008.27,0004.65,0004.19
2021-08-28 12:07:00,,0826.1,4.98,0.00,29.7,28.2,00.0,38.9,31.3,15.8,0000.9,0008.42,0004.63,0004.17
2021-08-28 12:08:00,,0826.0,5.01,0.00,29.7,28.3,00.0,38.8,31.4,15.9,0001.4,0008.54,0004.64,0004.16
2021-08-28 12:09:00,,0826.0,4.99,0.00,29.7,28.4,00.0,38.8,31.4,16.0,0001.4,0008.57,0004.64,0004.16
2021-08-28 12:10:00,,0825.9,4.99,0.00,29.7,28.4,00.0,38.8,31.4,15.9,0000.9,0008.53,0004.61,0004.17
2021-08-28 12:11:00,,0825.8,5.00,0.00,29.8,28.5,00.0,38.8,31.5,16.1,0000.9,0008.65,0004.59,0004.18
2021-08-28 12:12:00,,0825.8,5.01,0.00,29.8,28.6,00.0,38.9,31.5,16.0,0001.4,0008.88,0004.62,0004.19
2021-08-28 12:13:00,,0825.9,5.00,0.00,29.8,28.6,00.0,38.9,31.5,15.5,0001.7,0008.81,0004.61,0004.19
2021-08-28 12:14:00,,0825.9,4.99,0.00,29.8,28.7,00.0,38.9,31.6,15.4,0001.8,0008.69,0004.56,0004.17
2021-08-28 12:15:00,,0826.0,5.01,0.00,29.8,28.7,00.0,38.9,31.6,15.6,0002.0,0008.95,0004.50,0004.14
2021-08-28 12:16:00,,0825.9,5.00,0.00,29.9,28.7,00.0,38.9,31.6,15.6,0002.2,0009.39,0004.44,0004.08
2021-08-28 12:17:00,,0826.0,4.99,0.00,29.9,28.8,00.0,38.9,31.6,15.4,0002.1,0009.25,0004.42,0004.06
2021-08-28 12:18:00,,0826.0,4.99,0.00,29.9,28.8,00.0,38.9,31.7,15.3,0002.2,0009.13,0004.40,0004.06
2021-08-28 12:19:00,,0825.9,5.00,0.00,29.9,28.8,00.0,38.9,31.7,15.4,0002.0,0009.03,0004.40,0004.06
2021-08-28 12:20:00,,0826.0,5.00,0.00,29.9,28.9,00.0,39.0,31.7,15.5,0002.3,0008.98,0004.38,0004.05
2021-08-28 12:21:00,,0826.0,5.00,0.00,30.0,28.9,00.0,39.0,31.7,15.6,0002.6,0009.09,0004.42,0004.07
2021-08-28 12:22:00,,0826.0,4.99,0.00,30.0,28.9,00.0,39.0,31.8,15.4,0003.0,0009.57,0004.45,0004.08
2021-08-28 12:23:00,,0826.0,5.00,0.00,30.0,28.9,00.0,39.0,31.7,15.2,0002.8,0009.14,0004.43,0004.07
2021-08-28 12:24:00,,0826.0,5.00,0.00,30.0,29.0,00.0,39.0,31.8,14.8,0001.9,0009.07,0004.40,0004.06
2021-08-28 12:25:00,,0826.0,4.99,0.00,30.0,29.0,00.0,39.0,31.8,14.6,0001.5,0009.54,0004.39,0004.04
2021-08-28 12:26:00,,0826.0,5.01,0.00,30.1,29.0,00.0,39.1,31.8,14.5,0001.3,0009.66,0004.36,0004.02
2021-08-28 12:27:00,,0826.0,5.00,0.00,30.1,29.0,00.0,39.1,31.8,14.4,0000.8,0008.93,0004.36,0004.02
2021-08-28 12:28:00,,0826.0,4.99,0.00,30.1,29.0,00.0,39.1,31.9,14.3,0000.8,0009.01,0004.40,0004.03
2021-08-28 12:29:00,,0826.0,5.01,0.00,30.1,29.0,00.0,39.1,31.9,14.6,0000.8,0008.81,0004.40,0004.03
2021-08-28 12:30:00,,0826.1,5.00,0.00,30.1,29.1,00.0,39.1,31.9,14.4,0000.7,0008.80,0004.38,0004.02
2021-08-28 12:31:00,,0826.1,5.00,0.00,30.1,29.1,00.0,39.1,31.9,14.2,0000.3,0008.76,0004.35,0004.00
2021-08-28 12:32:00,,0826.2,5.01,0.00,30.2,29.0,00.0,39.1,31.9,14.1,-000.0,0008.67,0004.30,0003.97
2021-08-28 12:33:00,,0826.1,5.00,0.00,30.1,27.3,00.0,39.1,31.4,14.1,-000.6,0008.47,0004.27,0003.95
2021-08-28 12:34:00,,0826.2,5.00,0.00,29.9,26.2,00.0,39.1,31.1,14.2,-000.5,0009.11,0004.28,0003.93
2021-08-28 12:35:00,,0826.1,4.99,0.00,29.8,26.4,00.0,39.1,31.1,14.5,0000.1,0010.16,0004.28,0003.93
2021-08-28 12:36:00,,0826.2,5.00,0.00,29.7,26.8,00.0,39.0,31.1,14.7,0000.4,0009.59,0004.27,0003.93
2021-08-28 12:37:00,,0826.2,5.01,0.00,29.7,27.2,00.0,39.0,31.2,14.9,0000.7,0009.33,0004.25,0003.93
2021-08-28 12:38:00,,0826.2,4.99,0.00,29.7,27.5,00.0,38.9,31.2,14.8,0000.9,0009.43,0004.24,0003.92
2021-08-28 12:39:00,,0826.1,5.00,0.00,29.7,27.8,00.0,38.9,31.3,14.9,0001.2,0009.24,0004.18,0003.91
2021-08-28 12:40:00,,0826.2,5.00,0.00,29.7,28.0,00.0,38.9,31.3,14.7,0001.4,0009.21,0004.18,0003.89
2021-08-28 12:41:00,,0826.2,4.99,0.00,29.7,28.1,00.0,38.9,31.4,14.5,0001.7,0009.11,0004.17,0003.88
2021-08-28 12:42:00,,0826.2,5.00,0.00,29.7,28.3,00.0,38.9,31.4,14.2,0001.7,0009.07,0004.17,0003.88
2021-08-28 12:43:00,,0826.2,4.99,0.00,29.7,28.4,00.0,38.9,31.5,14.7,0001.6,0009.00,0004.16,0003.88
2021-08-28 12:44:00,,0826.2,4.99,0.00,29.8,28.5,00.0,38.9,31.5,14.8,0001.7,0008.52,0004.13,0003.88
2021-08-28 12:45:00,,0826.3,5.00,0.00,29.8,28.6,00.0,38.9,31.5,14.5,0001.8,0007.94,0004.08,0003.87
2021-08-28 12:46:00,,0826.3,5.00,0.00,29.8,28.6,00.0,38.9,31.5,14.6,0002.0,0006.31,0004.07,0003.87
2021-08-28 12:47:00,,0826.4,5.00,0.00,29.8,28.6,00.0,38.9,31.6,14.6,0002.2,0006.30,0004.07,0003.86
2021-08-28 12:48:00,,0826.4,4.99,0.00,29.8,28.7,00.0,38.9,31.6,14.4,0002.0,0006.04,0004.06,0003.86
2021-08-28 12:49:00,,0826.4,5.01,0.00,29.9,28.7,00.0,38.9,31.6,14.3,0001.7,0005.79,0004.08,0003.88
2021-08-28 12:50:00,,0826.5,4.99,0.00,29.9,28.8,00.0,38.9,31.7,14.5,0001.7,0006.00,0004.12,0003.90
2021-08-28 12:51:00,,0826.4,5.01,0.00,29.9,28.8,00.0,38.9,31.7,14.7,0001.6,0006.20,0004.13,0003.90
2021-08-28 12:52:00,,0826.4,5.00,0.00,29.9,28.9,00.0,39.0,31.7,14.7,0001.2,0006.38,0004.14,0003.92
2021-08-28 12:53:00,,0826.4,5.00,0.00,30.0,28.9,00.0,39.0,31.7,14.5,0000.9,0006.59,0004.17,0003.93
2021-08-28 12:54:00,,0826.4,5.00,0.00,30.0,28.9,00.0,39.0,31.7,14.6,0001.0,0006.80,0004.22,0003.94
2021-08-28 12:55:00,,0826.4,5.00,0.00,30.0,28.9,00.0,39.0,31.7,14.6,0001.4,0006.99,0004.26,0003.94
2021-08-28 12:56:00,,0826.3,5.01,0.00,30.0,29.0,00.0,39.0,31.7,14.7,0001.4,0007.13,0004.28,0003.95
2021-08-28 12:57:00,,0826.3,5.00,0.00,30.0,29.0,00.0,39.0,31.8,14.8,0001.4,0007.46,0004.30,0003.97
2021-08-28 12:58:00,,0826.3,4.99,0.00,30.1,29.1,00.0,39.1,31.9,14.8,0000.9,0007.69,0004.34,0003.98
2021-08-28 12:59:00,,0826.4,5.01,0.00,30.1,29.1,00.0,39.1,31.9,14.9,0000.7,0007.84,0004.39,0004.00
